CDG4781 ZSQD-ZSAM

Flight info

Callsign CDG4781
Flight time N/A
Altitude 32100
Route LATUX W108 MATNU W115 PINOT W13 BEGMO W117 DST B221 LJG A470 ENVEN
Aircraft B738/M-SDE2E3FGHIRWXY/LB1

Departure

Time 2026-04-28 05:38
Airport Qingdao Jiaodong International Airport (ZSQD)

Arrival

Time N/A
Airport Xiamen Gaoqi International Airport (ZSAM)
Time Latitude Longitude Altitude Speed Heading
2026-04-28 05:04 36.36332 120.08403 35 ft 0 kts 192°
2026-04-28 05:24 36.36342 120.08405 34 ft 2 kts 192°
2026-04-28 05:24 36.36356 120.08409 34 ft 2 kts 192°
2026-04-28 05:24 36.36371 120.08413 34 ft 1 kts 207°
2026-04-28 05:25 36.36381 120.08427 33 ft 2 kts 253°
2026-04-28 05:25 36.36382 120.08439 33 ft 0 kts 280°
2026-04-28 05:25 36.36380 120.08448 33 ft 0 kts 284°
2026-04-28 05:27 36.36382 120.08437 33 ft 3 kts 284°
2026-04-28 05:27 36.36391 120.08385 33 ft 6 kts 284°
2026-04-28 05:28 36.36424 120.08345 33 ft 6 kts 337°
2026-04-28 05:28 36.36476 120.08324 32 ft 9 kts 342°
2026-04-28 05:28 36.36554 120.08293 30 ft 14 kts 341°
2026-04-28 05:28 36.36650 120.08256 28 ft 14 kts 343°
2026-04-28 05:29 36.36745 120.08218 28 ft 11 kts 342°
2026-04-28 05:29 36.36805 120.08227 28 ft 8 kts 52°
2026-04-28 05:29 36.36827 120.08298 28 ft 10 kts 72°
2026-04-28 05:29 36.36853 120.08396 28 ft 13 kts 71°
2026-04-28 05:30 36.36884 120.08520 28 ft 16 kts 72°
2026-04-28 05:30 36.36923 120.08672 28 ft 20 kts 72°
2026-04-28 05:30 36.36966 120.08838 28 ft 19 kts 72°
2026-04-28 05:30 36.37006 120.08993 28 ft 18 kts 72°
2026-04-28 05:31 36.37044 120.09144 28 ft 17 kts 72°
2026-04-28 05:31 36.37081 120.09287 28 ft 16 kts 72°
2026-04-28 05:31 36.37115 120.09416 28 ft 10 kts 73°
2026-04-28 05:31 36.37106 120.09490 28 ft 8 kts 138°
2026-04-28 05:32 36.37046 120.09521 28 ft 10 kts 162°
2026-04-28 05:32 36.36960 120.09556 28 ft 15 kts 162°
2026-04-28 05:32 36.36842 120.09602 28 ft 20 kts 162°
2026-04-28 05:32 36.36697 120.09658 31 ft 23 kts 162°
2026-04-28 05:33 36.36530 120.09722 34 ft 24 kts 163°
2026-04-28 05:33 36.36371 120.09785 34 ft 23 kts 162°
2026-04-28 05:33 36.36218 120.09843 37 ft 21 kts 163°
2026-04-28 05:33 36.36078 120.09899 36 ft 21 kts 162°
2026-04-28 05:34 36.35938 120.09955 35 ft 20 kts 162°
2026-04-28 05:34 36.35800 120.10010 34 ft 20 kts 162°
2026-04-28 05:34 36.35658 120.10067 31 ft 21 kts 162°
2026-04-28 05:34 36.35513 120.10124 28 ft 22 kts 162°
2026-04-28 05:35 36.35368 120.10182 28 ft 21 kts 162°
2026-04-28 05:35 36.35225 120.10238 26 ft 21 kts 161°
2026-04-28 05:35 36.35079 120.10294 25 ft 20 kts 162°
2026-04-28 05:35 36.35007 120.10323 25 ft 9 kts 161°
2026-04-28 05:36 36.34972 120.10377 25 ft 8 kts 94°
2026-04-28 05:36 36.34988 120.10438 25 ft 7 kts 62°
2026-04-28 05:36 36.35021 120.10479 25 ft 6 kts 38°
2026-04-28 05:36 36.35052 120.10510 25 ft 5 kts 38°
2026-04-28 05:37 36.35081 120.10516 25 ft 4 kts 339°
2026-04-28 05:37 36.35093 120.10511 25 ft 0 kts 342°
2026-04-28 05:37 36.35113 120.10503 25 ft 16 kts 342°
2026-04-28 05:37 36.35465 120.10365 27 ft 86 kts 342°
2026-04-28 05:38 36.36229 120.10063 35 ft 143 kts 341°
2026-04-28 05:38 36.37289 120.09645 373 ft 161 kts 341°
2026-04-28 05:38 36.38346 120.09230 1070 ft 160 kts 342°
2026-04-28 05:38 36.39364 120.08833 1811 ft 151 kts 345°
2026-04-28 05:39 36.40355 120.08446 2208 ft 153 kts 343°
2026-04-28 05:39 36.41381 120.08030 2550 ft 158 kts 344°
2026-04-28 05:39 36.42440 120.07611 2954 ft 159 kts 344°
2026-04-28 05:39 36.43501 120.07198 3336 ft 165 kts 344°
2026-04-28 05:40 36.44657 120.06747 3655 ft 178 kts 343°
2026-04-28 05:40 36.45858 120.06274 3940 ft 191 kts 343°
2026-04-28 05:40 36.47229 120.05755 3923 ft 217 kts 347°
2026-04-28 05:40 36.48770 120.05637 3923 ft 228 kts 11°
2026-04-28 05:41 36.50267 120.06522 3965 ft 253 kts 39°
2026-04-28 05:41 36.51367 120.08273 4579 ft 261 kts 59°
2026-04-28 05:41 36.52037 120.10341 5294 ft 263 kts 68°
2026-04-28 05:41 36.52578 120.12525 5901 ft 268 kts 69°
2026-04-28 05:42 36.53114 120.14761 6543 ft 271 kts 69°
2026-04-28 05:42 36.53669 120.17018 7107 ft 278 kts 68°
2026-04-28 05:42 36.54187 120.19360 7678 ft 287 kts 75°
2026-04-28 05:42 36.54242 120.21852 8249 ft 300 kts 97°
2026-04-28 05:43 36.53513 120.24311 8870 ft 309 kts 120°
2026-04-28 05:43 36.52168 120.26395 9498 ft 314 kts 137°
2026-04-28 05:43 36.50379 120.27994 10052 ft 318 kts 158°
2026-04-28 05:43 36.48291 120.28970 10526 ft 326 kts 166°
2026-04-28 05:44 36.46100 120.29765 10920 ft 338 kts 168°
2026-04-28 05:44 36.43766 120.30579 11320 ft 353 kts 168°
2026-04-28 05:44 36.41380 120.31439 11685 ft 368 kts 167°
2026-04-28 05:44 36.38867 120.32379 12038 ft 383 kts 167°
2026-04-28 05:45 36.36276 120.33375 12534 ft 394 kts 166°
2026-04-28 05:45 36.33659 120.34392 13123 ft 401 kts 166°
2026-04-28 05:45 36.30992 120.35438 13839 ft 404 kts 166°
2026-04-28 05:45 36.28291 120.36498 14539 ft 408 kts 167°
2026-04-28 05:46 36.25552 120.37567 15160 ft 414 kts 168°
2026-04-28 05:46 36.22811 120.38638 15914 ft 415 kts 168°
2026-04-28 05:46 36.20078 120.39701 16601 ft 418 kts 169°
2026-04-28 05:46 36.17280 120.40787 17190 ft 423 kts 169°
2026-04-28 05:47 36.14457 120.41882 17871 ft 425 kts 170°
2026-04-28 05:47 36.11653 120.42966 18439 ft 430 kts 170°
2026-04-28 05:47 36.08794 120.44074 19165 ft 429 kts 171°
2026-04-28 05:47 36.05958 120.45175 19927 ft 427 kts 171°
2026-04-28 05:48 36.03108 120.46281 20599 ft 427 kts 171°
2026-04-28 05:48 36.00279 120.47375 21246 ft 427 kts 172°
2026-04-28 05:48 35.97454 120.48467 21871 ft 426 kts 172°
2026-04-28 05:48 35.94632 120.49655 22384 ft 432 kts 169°
2026-04-28 05:49 35.91856 120.51040 23019 ft 434 kts 167°
2026-04-28 05:49 35.89077 120.52548 23472 ft 439 kts 166°
2026-04-28 05:49 35.86286 120.54110 23631 ft 444 kts 165°
2026-04-28 05:49 35.83468 120.55701 23774 ft 452 kts 165°
2026-04-28 05:50 35.80621 120.57312 24509 ft 448 kts 166°
2026-04-28 05:50 35.77765 120.58913 24817 ft 454 kts 166°
2026-04-28 05:50 35.74882 120.60519 25378 ft 455 kts 166°
2026-04-28 05:50 35.71996 120.62137 25839 ft 459 kts 165°
2026-04-28 05:51 35.69106 120.63914 26255 ft 466 kts 162°
2026-04-28 05:51 35.66246 120.65819 26578 ft 473 kts 162°
2026-04-28 05:51 35.63386 120.67807 27172 ft 472 kts 161°
2026-04-28 05:51 35.60516 120.69822 27523 ft 475 kts 161°
2026-04-28 05:52 35.57673 120.71812 27894 ft 478 kts 161°
2026-04-28 05:52 35.54756 120.73843 28329 ft 478 kts 162°
2026-04-28 05:52 35.51859 120.75842 28771 ft 478 kts 162°
2026-04-28 05:52 35.48947 120.77829 29255 ft 476 kts 163°
2026-04-28 05:53 35.46038 120.79621 29791 ft 468 kts 167°
2026-04-28 05:53 35.43097 120.81213 30265 ft 463 kts 169°
2026-04-28 05:53 35.40113 120.82702 30738 ft 459 kts 171°
2026-04-28 05:53 35.37132 120.84135 31220 ft 457 kts 171°
2026-04-28 05:54 35.34177 120.85540 31686 ft 455 kts 171°
2026-04-28 05:54 35.31218 120.86946 31962 ft 458 kts 171°
2026-04-28 05:54 35.28265 120.88348 32126 ft 463 kts 170°
2026-04-28 05:54 35.25222 120.89804 32231 ft 465 kts 170°
2026-04-28 05:55 35.19177 120.92735 32227 ft 465 kts 170°
2026-04-28 05:55 35.13202 120.95668 32231 ft 466 kts 169°
2026-04-28 05:56 35.07165 120.98659 32226 ft 469 kts 169°
2026-04-28 05:56 35.01098 121.01675 32231 ft 470 kts 169°
2026-04-28 05:57 34.95071 121.04673 32232 ft 468 kts 169°
2026-04-28 05:57 34.89100 121.07641 32234 ft 465 kts 169°
2026-04-28 05:58 34.83081 121.10615 32229 ft 467 kts 169°
2026-04-28 05:58 34.77016 121.13597 32231 ft 470 kts 168°
2026-04-28 05:59 34.70925 121.16592 32231 ft 470 kts 168°
2026-04-28 05:59 34.64877 121.19569 32229 ft 468 kts 168°
2026-04-28 06:00 34.58860 121.22522 32231 ft 470 kts 168°
2026-04-28 06:00 34.52798 121.25498 32229 ft 467 kts 168°
2026-04-28 06:01 34.46796 121.28438 32227 ft 465 kts 168°
2026-04-28 06:01 34.40752 121.31384 32225 ft 470 kts 168°
2026-04-28 06:02 34.34729 121.34323 32225 ft 464 kts 167°
2026-04-28 06:02 34.28696 121.37264 32233 ft 469 kts 168°
2026-04-28 06:03 34.22641 121.40203 32240 ft 467 kts 168°
2026-04-28 06:03 34.16630 121.43121 32243 ft 465 kts 168°
2026-04-28 06:04 34.10646 121.46028 32243 ft 465 kts 167°
2026-04-28 06:04 34.04615 121.48944 32241 ft 466 kts 167°
2026-04-28 06:05 33.98646 121.51833 32241 ft 465 kts 167°
2026-04-28 06:05 33.92661 121.54724 32242 ft 463 kts 167°
2026-04-28 06:06 33.86681 121.57606 32240 ft 462 kts 167°
2026-04-28 06:06 33.80669 121.60495 32232 ft 461 kts 167°
2026-04-28 06:07 33.74725 121.63352 32229 ft 458 kts 167°
2026-04-28 06:07 33.68783 121.66213 32230 ft 463 kts 167°
2026-04-28 06:08 33.62869 121.69099 32230 ft 460 kts 167°
2026-04-28 06:08 33.56970 121.71997 32228 ft 458 kts 167°
2026-04-28 06:09 33.51085 121.74878 32229 ft 457 kts 167°
2026-04-28 06:09 33.45220 121.77748 32231 ft 453 kts 167°
2026-04-28 06:10 33.39381 121.80595 32229 ft 456 kts 167°
2026-04-28 06:10 33.33523 121.83448 32227 ft 450 kts 167°
2026-04-28 06:11 33.27752 121.86259 32228 ft 448 kts 167°
2026-04-28 06:11 33.21967 121.89060 32231 ft 453 kts 167°
2026-04-28 06:12 33.16127 121.91888 32232 ft 449 kts 167°
2026-04-28 06:12 33.10352 121.94688 32230 ft 446 kts 167°
2026-04-28 06:13 33.04625 121.97463 32230 ft 446 kts 167°
2026-04-28 06:13 32.98865 122.00241 32225 ft 445 kts 167°
2026-04-28 06:14 32.93097 122.03011 32224 ft 449 kts 167°
2026-04-28 06:14 32.87321 122.05794 32227 ft 450 kts 167°
2026-04-28 06:15 32.81531 122.08580 32218 ft 445 kts 167°
2026-04-28 06:15 32.75758 122.11348 32217 ft 452 kts 167°
2026-04-28 06:16 32.69896 122.14152 32208 ft 454 kts 166°
2026-04-28 06:16 32.64051 122.16948 32206 ft 454 kts 166°
2026-04-28 06:17 32.58232 122.19735 32204 ft 452 kts 166°
2026-04-28 06:18 32.49453 122.23921 32196 ft 454 kts 166°
2026-04-28 06:18 32.43608 122.26708 32194 ft 453 kts 166°
2026-04-28 06:19 32.37724 122.29500 32184 ft 457 kts 166°
2026-04-28 06:19 32.31816 122.32307 32184 ft 456 kts 166°
2026-04-28 06:20 32.25913 122.35108 32182 ft 455 kts 166°
2026-04-28 06:20 32.20002 122.37904 32182 ft 461 kts 165°
2026-04-28 06:21 32.14107 122.40698 32177 ft 457 kts 165°
2026-04-28 06:21 32.08167 122.43500 32175 ft 460 kts 165°
2026-04-28 06:22 32.02221 122.46304 32171 ft 460 kts 165°
2026-04-28 06:22 31.96316 122.49088 32172 ft 459 kts 165°
2026-04-28 06:23 31.90344 122.51894 32167 ft 461 kts 165°
2026-04-28 06:23 31.84385 122.54695 32168 ft 457 kts 165°
2026-04-28 06:24 31.78423 122.57489 32167 ft 461 kts 165°
2026-04-28 06:24 31.72452 122.59957 32163 ft 451 kts 174°
2026-04-28 06:24 31.69382 122.60430 32167 ft 440 kts 186°
2026-04-28 06:25 31.66392 122.60175 32167 ft 430 kts 196°
2026-04-28 06:25 31.60774 122.58160 32164 ft 418 kts 209°
2026-04-28 06:26 31.55771 122.54781 32165 ft 410 kts 220°
2026-04-28 06:26 31.51242 122.50781 32163 ft 407 kts 223°
2026-04-28 06:27 31.46711 122.46783 32162 ft 412 kts 216°
2026-04-28 06:27 31.44083 122.45395 32165 ft 421 kts 203°
2026-04-28 06:27 31.41157 122.44680 32168 ft 435 kts 194°
2026-04-28 06:28 31.35099 122.44170 32161 ft 436 kts 189°
2026-04-28 06:28 31.29013 122.43917 32156 ft 440 kts 189°
2026-04-28 06:29 31.22891 122.43657 32152 ft 439 kts 189°
2026-04-28 06:29 31.16814 122.43362 32146 ft 438 kts 189°
2026-04-28 06:30 31.10737 122.43041 32146 ft 440 kts 189°
2026-04-28 06:30 31.04639 122.42704 32143 ft 439 kts 189°
2026-04-28 06:31 30.98510 122.42363 32137 ft 439 kts 189°
2026-04-28 06:31 30.92437 122.42019 32134 ft 441 kts 189°
2026-04-28 06:32 30.86266 122.41663 32135 ft 442 kts 189°
2026-04-28 06:32 30.80158 122.41316 32134 ft 439 kts 189°
2026-04-28 06:33 30.74041 122.40971 32129 ft 440 kts 189°
2026-04-28 06:33 30.67894 122.40621 32127 ft 441 kts 189°
2026-04-28 06:34 30.61783 122.40279 32127 ft 438 kts 189°
2026-04-28 06:34 30.55654 122.39935 32123 ft 442 kts 189°
2026-04-28 06:35 30.49521 122.39611 32115 ft 439 kts 189°
2026-04-28 06:35 30.43372 122.39290 32117 ft 444 kts 189°
2026-04-28 06:36 30.37199 122.38969 32115 ft 443 kts 189°
2026-04-28 06:36 30.31047 122.38648 32115 ft 444 kts 189°
2026-04-28 06:37 30.24899 122.38328 32112 ft 443 kts 189°
2026-04-28 06:37 30.18748 122.37970 32108 ft 443 kts 189°
2026-04-28 06:38 30.12554 122.37573 32103 ft 442 kts 189°
2026-04-28 06:38 30.06408 122.37174 32103 ft 446 kts 189°
2026-04-28 06:39 30.00226 122.36781 32102 ft 443 kts 189°
2026-04-28 06:39 29.93991 122.36549 32097 ft 449 kts 184°
2026-04-28 06:40 29.87745 122.37350 32100 ft 458 kts 176°
2026-04-28 06:40 29.81488 122.38805 32098 ft 459 kts 173°
2026-04-28 06:41 29.75245 122.40370 32096 ft 460 kts 173°
2026-04-28 06:41 29.68964 122.41911 32096 ft 459 kts 173°
2026-04-28 06:42 29.62686 122.43408 32098 ft 459 kts 174°
2026-04-28 06:42 29.56450 122.44875 32096 ft 458 kts 174°
2026-04-28 06:43 29.50157 122.46339 32095 ft 459 kts 174°
2026-04-28 06:43 29.43934 122.47782 32088 ft 460 kts 174°
2026-04-28 06:44 29.37619 122.49245 32088 ft 459 kts 174°
2026-04-28 06:44 29.31349 122.50697 32083 ft 462 kts 173°
2026-04-28 06:45 29.25073 122.52074 32077 ft 458 kts 177°
2026-04-28 06:45 29.18847 122.51958 32079 ft 443 kts 198°
2026-04-28 06:46 29.13171 122.49457 32072 ft 434 kts 210°
2026-04-28 06:46 29.07795 122.46328 32069 ft 434 kts 212°
2026-04-28 06:47 29.02453 122.43112 32066 ft 434 kts 212°
2026-04-28 06:47 28.97093 122.39905 32069 ft 434 kts 212°
2026-04-28 06:48 28.91715 122.36719 32072 ft 437 kts 212°
2026-04-28 06:48 28.86313 122.33537 32076 ft 435 kts 212°
2026-04-28 06:49 28.80927 122.30376 32079 ft 436 kts 212°
2026-04-28 06:49 28.75565 122.27235 32078 ft 435 kts 212°
2026-04-28 06:50 28.70153 122.24069 32075 ft 437 kts 212°
2026-04-28 06:50 28.64733 122.20900 32070 ft 437 kts 212°
2026-04-28 06:51 28.59351 122.17759 32074 ft 435 kts 212°
2026-04-28 06:51 28.53956 122.14613 32076 ft 436 kts 212°
2026-04-28 06:52 28.48548 122.11467 32078 ft 436 kts 212°
2026-04-28 06:52 28.43142 122.08327 32074 ft 437 kts 212°
2026-04-28 06:53 28.37743 122.05191 32070 ft 438 kts 212°
2026-04-28 06:53 28.32287 122.02024 32069 ft 438 kts 212°
2026-04-28 06:54 28.26888 121.98895 32073 ft 438 kts 211°
2026-04-28 06:54 28.21460 121.95751 32065 ft 437 kts 212°
2026-04-28 06:55 28.16054 121.92628 32066 ft 436 kts 212°
2026-04-28 06:55 28.10639 121.89502 32068 ft 437 kts 212°
2026-04-28 06:56 28.05327 121.86156 32059 ft 434 kts 220°
2026-04-28 06:56 28.01163 121.81410 32063 ft 422 kts 239°
2026-04-28 06:57 27.98447 121.75575 32058 ft 418 kts 252°
2026-04-28 06:57 27.96863 121.69300 32053 ft 416 kts 259°
2026-04-28 06:58 27.95647 121.62938 32056 ft 414 kts 260°
2026-04-28 06:58 27.94437 121.56582 32045 ft 413 kts 260°
2026-04-28 06:59 27.93186 121.50251 32043 ft 416 kts 259°
2026-04-28 06:59 27.91900 121.43919 32041 ft 415 kts 259°
2026-04-28 07:00 27.90593 121.37569 32038 ft 414 kts 259°
2026-04-28 07:00 27.89283 121.31247 32039 ft 414 kts 259°
2026-04-28 07:01 27.87977 121.24961 32031 ft 413 kts 259°
2026-04-28 07:01 27.86664 121.18650 32030 ft 414 kts 259°
2026-04-28 07:02 27.85348 121.12321 32027 ft 413 kts 259°
2026-04-28 07:02 27.84040 121.06036 32028 ft 412 kts 259°
2026-04-28 07:03 27.82728 120.99755 32024 ft 413 kts 259°
2026-04-28 07:03 27.81415 120.93487 32027 ft 412 kts 259°
2026-04-28 07:04 27.80097 120.87201 32024 ft 412 kts 259°
2026-04-28 07:04 27.78774 120.80911 32022 ft 411 kts 259°
2026-04-28 07:05 27.77450 120.74626 32020 ft 413 kts 259°
2026-04-28 07:05 27.75959 120.68391 32016 ft 413 kts 253°
2026-04-28 07:06 27.73030 120.62779 32020 ft 424 kts 233°
2026-04-28 07:06 27.68584 120.58355 32017 ft 431 kts 221°
2026-04-28 07:07 27.63517 120.54576 32019 ft 435 kts 217°
2026-04-28 07:07 27.58386 120.51009 32022 ft 435 kts 217°
2026-04-28 07:08 27.53235 120.47420 32027 ft 436 kts 217°
2026-04-28 07:08 27.48078 120.43793 32034 ft 434 kts 217°
2026-04-28 07:09 27.42976 120.40181 32035 ft 435 kts 218°
2026-04-28 07:09 27.37849 120.36543 32031 ft 437 kts 218°
2026-04-28 07:10 27.32731 120.32918 32029 ft 436 kts 217°
2026-04-28 07:10 27.27616 120.29299 32018 ft 435 kts 217°
2026-04-28 07:11 27.22443 120.25645 32010 ft 436 kts 217°
2026-04-28 07:11 27.17330 120.22038 32020 ft 435 kts 217°
2026-04-28 07:12 27.12175 120.18403 32037 ft 436 kts 217°
2026-04-28 07:12 27.07035 120.14758 32049 ft 435 kts 217°
2026-04-28 07:13 27.01887 120.11095 32055 ft 435 kts 217°
2026-04-28 07:13 26.96768 120.07456 32058 ft 436 kts 217°
2026-04-28 07:14 26.91662 120.03833 32051 ft 435 kts 217°
2026-04-28 07:14 26.86504 120.00179 32043 ft 437 kts 217°
2026-04-28 07:15 26.81353 119.96536 32026 ft 436 kts 217°
2026-04-28 07:15 26.76235 119.92924 32021 ft 436 kts 217°
2026-04-28 07:16 26.71083 119.89294 32020 ft 437 kts 217°
2026-04-28 07:16 26.65933 119.85668 32022 ft 436 kts 217°
2026-04-28 07:17 26.60791 119.82052 32024 ft 438 kts 217°
2026-04-28 07:17 26.55595 119.78403 32022 ft 436 kts 217°
2026-04-28 07:18 26.50458 119.74798 32019 ft 437 kts 217°
2026-04-28 07:18 26.45293 119.71178 32018 ft 437 kts 217°
2026-04-28 07:19 26.40134 119.67561 32005 ft 436 kts 217°
2026-04-28 07:19 26.34996 119.63960 32002 ft 437 kts 217°
2026-04-28 07:20 26.29806 119.60327 32001 ft 438 kts 217°
2026-04-28 07:20 26.24648 119.56754 32002 ft 438 kts 216°
2026-04-28 07:21 26.19122 119.53737 31997 ft 444 kts 206°
2026-04-28 07:21 26.13231 119.51584 31992 ft 446 kts 201°
2026-04-28 07:22 26.04286 119.48696 31987 ft 444 kts 201°
2026-04-28 07:22 25.98332 119.46739 31989 ft 445 kts 202°
2026-04-28 07:23 25.92419 119.44759 31997 ft 445 kts 202°
2026-04-28 07:23 25.86464 119.42747 32006 ft 444 kts 202°
2026-04-28 07:24 25.80526 119.40733 32014 ft 444 kts 202°
2026-04-28 07:24 25.74787 119.38278 32023 ft 435 kts 214°
2026-04-28 07:25 25.70096 119.34142 32024 ft 427 kts 228°
2026-04-28 07:25 25.65976 119.29385 32020 ft 426 kts 231°
2026-04-28 07:26 25.61946 119.24538 32015 ft 424 kts 231°
2026-04-28 07:26 25.57933 119.19740 32013 ft 425 kts 230°
2026-04-28 07:27 25.53881 119.14942 32018 ft 425 kts 230°
2026-04-28 07:27 25.49839 119.10191 32023 ft 425 kts 230°
2026-04-28 07:28 25.45793 119.05455 32029 ft 422 kts 230°
2026-04-28 07:28 25.41737 119.00716 32034 ft 424 kts 230°
2026-04-28 07:29 25.37681 118.95980 32032 ft 423 kts 230°
2026-04-28 07:29 25.33621 118.91245 31694 ft 417 kts 230°
2026-04-28 07:30 25.31659 118.88918 31232 ft 411 kts 231°
2026-04-28 07:30 25.29727 118.86585 30678 ft 410 kts 231°
2026-04-28 07:30 25.27814 118.84255 30144 ft 415 kts 231°
2026-04-28 07:30 25.25821 118.81821 29593 ft 427 kts 231°
2026-04-28 07:31 25.23829 118.79392 28974 ft 427 kts 231°
2026-04-28 07:31 25.21852 118.76993 28373 ft 424 kts 230°
2026-04-28 07:31 25.19864 118.74586 27752 ft 422 kts 230°
2026-04-28 07:31 25.17880 118.72189 27132 ft 420 kts 230°
2026-04-28 07:32 25.15925 118.69829 26521 ft 418 kts 230°
2026-04-28 07:32 25.13965 118.67465 25902 ft 416 kts 230°
2026-04-28 07:32 25.12031 118.65134 25282 ft 413 kts 230°
2026-04-28 07:32 25.10108 118.62817 24670 ft 411 kts 230°
2026-04-28 07:33 25.08175 118.60502 24043 ft 409 kts 229°
2026-04-28 07:33 25.06219 118.58218 23433 ft 407 kts 229°
2026-04-28 07:33 25.04273 118.55983 22823 ft 404 kts 228°
2026-04-28 07:33 25.02327 118.53761 22223 ft 402 kts 228°
2026-04-28 07:34 25.00397 118.51562 21641 ft 400 kts 228°
2026-04-28 07:34 24.98488 118.49384 21047 ft 398 kts 228°
2026-04-28 07:34 24.96563 118.47186 20432 ft 396 kts 228°
2026-04-28 07:34 24.94651 118.44999 19800 ft 395 kts 228°
2026-04-28 07:35 24.92766 118.42841 19176 ft 394 kts 228°
2026-04-28 07:35 24.90884 118.40686 18695 ft 387 kts 227°
2026-04-28 07:35 24.89041 118.38577 18436 ft 376 kts 227°
2026-04-28 07:35 24.87303 118.36517 18286 ft 360 kts 232°
2026-04-28 07:36 24.85911 118.34283 18144 ft 345 kts 243°
2026-04-28 07:36 24.85253 118.31794 17957 ft 334 kts 265°
2026-04-28 07:36 24.85510 118.29267 17570 ft 332 kts 285°
2026-04-28 07:36 24.86521 118.26997 17178 ft 332 kts 301°
2026-04-28 07:37 24.87900 118.24990 16794 ft 329 kts 304°
2026-04-28 07:37 24.89187 118.22910 16400 ft 324 kts 297°
2026-04-28 07:37 24.90256 118.20756 16023 ft 319 kts 294°
2026-04-28 07:37 24.91232 118.18568 15656 ft 315 kts 293°
2026-04-28 07:38 24.92109 118.16404 15315 ft 309 kts 288°
2026-04-28 07:38 24.92786 118.14090 14935 ft 305 kts 283°
2026-04-28 07:38 24.93306 118.11835 14570 ft 302 kts 281°
2026-04-28 07:38 24.93782 118.09611 14226 ft 299 kts 281°
2026-04-28 07:39 24.94203 118.07349 13851 ft 295 kts 276°
2026-04-28 07:39 24.94388 118.05131 13508 ft 291 kts 271°
2026-04-28 07:39 24.94331 118.02939 13166 ft 286 kts 258°
2026-04-28 07:39 24.93653 118.00908 12836 ft 282 kts 238°
2026-04-28 07:40 24.92256 117.99331 12496 ft 281 kts 214°
2026-04-28 07:40 24.90439 117.98507 12163 ft 282 kts 194°
2026-04-28 07:40 24.88481 117.98381 11831 ft 282 kts 180°
2026-04-28 07:40 24.86544 117.98573 11507 ft 280 kts 176°
2026-04-28 07:41 24.84602 117.98813 11178 ft 277 kts 176°
2026-04-28 07:41 24.82704 117.99030 10919 ft 271 kts 177°
2026-04-28 07:41 24.80827 117.99221 10683 ft 266 kts 178°
2026-04-28 07:41 24.78999 117.99394 10440 ft 261 kts 178°
2026-04-28 07:42 24.77167 117.99563 10216 ft 257 kts 178°
2026-04-28 07:42 24.75382 117.99725 9983 ft 254 kts 178°
2026-04-28 07:42 24.73640 117.99886 9803 ft 247 kts 178°
2026-04-28 07:42 24.71933 118.00048 9601 ft 242 kts 178°
2026-04-28 07:43 24.70257 118.00205 9332 ft 240 kts 178°
2026-04-28 07:43 24.68584 118.00359 9044 ft 239 kts 178°
2026-04-28 07:43 24.66935 118.00510 8760 ft 238 kts 178°
2026-04-28 07:43 24.65286 118.00662 8483 ft 237 kts 178°
2026-04-28 07:44 24.63626 118.00817 8205 ft 236 kts 178°
2026-04-28 07:44 24.61996 118.00970 7926 ft 234 kts 178°
2026-04-28 07:44 24.60375 118.01124 7655 ft 233 kts 178°
2026-04-28 07:44 24.58743 118.01276 7386 ft 239 kts 178°
2026-04-28 07:45 24.57058 118.01247 7069 ft 242 kts 193°
2026-04-28 07:45 24.55571 118.00484 6797 ft 236 kts 222°
2026-04-28 07:45 24.54466 117.99172 6530 ft 233 kts 230°
2026-04-28 07:45 24.53429 117.97797 6237 ft 231 kts 230°
2026-04-28 07:46 24.52379 117.96460 5958 ft 230 kts 228°
2026-04-28 07:46 24.51310 117.95150 5675 ft 228 kts 227°
2026-04-28 07:46 24.50248 117.93864 5405 ft 227 kts 227°
2026-04-28 07:46 24.49188 117.92577 5127 ft 227 kts 227°
2026-04-28 07:47 24.48111 117.91303 4882 ft 227 kts 223°
2026-04-28 07:47 24.46827 117.90344 4651 ft 222 kts 199°
2026-04-28 07:47 24.45289 117.90247 4406 ft 220 kts 168°
2026-04-28 07:47 24.43869 117.90915 4169 ft 222 kts 149°
2026-04-28 07:48 24.42658 117.91961 3920 ft 223 kts 134°
2026-04-28 07:48 24.41938 117.93458 3680 ft 227 kts 102°
2026-04-28 07:48 24.42068 117.95180 3452 ft 227 kts 73°
2026-04-28 07:48 24.42819 117.96687 3213 ft 225 kts 56°
2026-04-28 07:49 24.43763 117.98007 3068 ft 217 kts 52°